| time (UTC) | temp F | wind direction | speed MPH | gust MPH | rain 1hr in | rain 24hr in | rain mn in | humidity % | barometer mb |
| 20260902203037 | 101 | 37 | 2.0 | 7.0 | 0.00 | 0.01 | 0.00 | 35 | 1012.3 |
| 20260902202017 | 101 | 49 | 3.0 | 8.0 | 0.00 | 0.01 | 0.00 | 37 | 1012.5 |
| 20260902201017 | 101 | 55 | 2.0 | 7.0 | 0.00 | 0.01 | 0.00 | 37 | 1012.6 |
| 20260902200018 | 100 | 48 | 2.0 | 6.0 | 0.00 | 0.01 | 0.00 | 38 | 1012.8 |
| 20260902195018 | 100 | 48 | 2.0 | 7.0 | 0.00 | 0.01 | 0.00 | 38 | 1013.0 |
| 20260902194018 | 100 | 64 | 2.0 | 5.0 | 0.00 | 0.01 | 0.00 | 38 | 1013.2 |
| 20260902193018 | 101 | 62 | 2.0 | 5.0 | 0.00 | 0.01 | 0.00 | 37 | 1013.3 |
| 20260902192018 | 100 | 17 | 2.0 | 5.0 | 0.00 | 0.01 | 0.00 | 38 | 1013.6 |
| 20260902191018 | 99 | 54 | 2.0 | 5.0 | 0.00 | 0.01 | 0.00 | 38 | 1013.7 |
| 20260902190018 | 99 | 68 | 3.0 | 6.0 | 0.00 | 0.01 | 0.00 | 39 | 1013.9 |
| 20260902185015 | 99 | 76 | 2.0 | 8.0 | 0.00 | 0.01 | 0.00 | 38 | 1013.9 |
| 20260902184016 | 99 | 51 | 2.0 | 6.0 | 0.00 | 0.01 | 0.00 | 39 | 1014.1 |
| 20260902183036 | 98 | 43 | 3.0 | 6.0 | 0.00 | 0.01 | 0.00 | 40 | 1014.2 |
| 20260902182016 | 97 | 18 | 1.0 | 4.0 | 0.00 | 0.01 | 0.00 | 41 | 1014.4 |
| 20260902181016 | 96 | 88 | 1.0 | 5.0 | 0.00 | 0.01 | 0.00 | 43 | 1014.7 |
| 20260902180036 | 98 | 62 | 3.0 | 7.0 | 0.00 | 0.01 | 0.00 | 41 | 1014.9 |
| 20260902175037 | 97 | 91 | 2.0 | 4.0 | 0.00 | 0.01 | 0.00 | 42 | 1015.1 |
| 20260902174017 | 96 | 114 | 1.0 | 3.0 | 0.00 | 0.01 | 0.00 | 43 | 1015.2 |
| 20260902173017 | 96 | 68 | 2.0 | 5.0 | 0.00 | 0.01 | 0.00 | 44 | 1015.4 |
| 20260902172017 | 96 | 101 | 2.0 | 8.0 | 0.00 | 0.01 | 0.00 | 45 | 1015.6 |
| 20260902171017 | 96 | 95 | 2.0 | 7.0 | 0.00 | 0.01 | 0.00 | 44 | 1015.7 |
| 20260902170017 | 95 | 72 | 2.0 | 7.0 | 0.00 | 0.01 | 0.00 | 44 | 1015.8 |
| 20260902165017 | 95 | 147 | 2.0 | 5.0 | 0.00 | 0.01 | 0.00 | 44 | 1015.8 |
| 20260902164017 | 94 | 193 | 1.0 | 4.0 | 0.00 | 0.01 | 0.00 | 45 | 1015.9 |
| 20260902163018 | 94 | 117 | 2.0 | 8.0 | 0.00 | 0.01 | 0.00 | 45 | 1016.0 |
| 20260902162017 | 93 | 100 | 1.0 | 4.0 | 0.00 | 0.01 | 0.00 | 47 | 1016.1 |
| 20260902161018 | 93 | 93 | 2.0 | 6.0 | 0.00 | 0.01 | 0.00 | 46 | 1016.2 |
| 20260902160018 | 92 | 117 | 1.0 | 5.0 | 0.00 | 0.01 | 0.00 | 48 | 1016.1 |
| 20260902155015 | 92 | 62 | 2.0 | 4.0 | 0.00 | 0.01 | 0.00 | 50 | 1016.2 |
| 20260902154016 | 92 | 118 | 0.0 | 3.0 | 0.00 | 0.01 | 0.00 | 50 | 1016.1 |
| 20260902153056 | 91 | 131 | 1.0 | 3.0 | 0.00 | 0.01 | 0.00 | 52 | 1016.1 |
| 20260902152056 | 90 | 51 | 1.0 | 4.0 | 0.00 | 0.01 | 0.00 | 53 | 1016.2 |
| 20260902151036 | 89 | 137 | 1.0 | 3.0 | 0.00 | 0.01 | 0.00 | 56 | 1016.2 |
| 20260902150016 | 89 | 149 | 1.0 | 4.0 | 0.00 | 0.01 | 0.00 | 56 | 1016.2 |
| 20260902145016 | 87 | 79 | 0.0 | 3.0 | 0.00 | 0.01 | 0.00 | 59 | 1016.1 |
| 20260902144016 | 87 | 185 | 1.0 | 4.0 | 0.00 | 0.01 | 0.00 | 60 | 1016.1 |
| 20260902143017 | 87 | 109 | 2.0 | 5.0 | 0.00 | 0.01 | 0.00 | 60 | 1016.2 |
| 20260902142017 | 86 | 96 | 1.0 | 3.0 | 0.00 | 0.01 | 0.00 | 61 | 1016.1 |
| 20260902141017 | 85 | 79 | 1.0 | 3.0 | 0.00 | 0.01 | 0.00 | 62 | 1016.1 |
| 20260902140018 | 84 | 92 | 2.0 | 4.0 | 0.00 | 0.01 | 0.00 | 64 | 1016.2 |
| 20260902135037 | 84 | 120 | 3.0 | 7.0 | 0.00 | 0.01 | 0.00 | 65 | 1016.2 |
| 20260902134038 | 84 | 87 | 2.0 | 6.0 | 0.00 | 0.01 | 0.00 | 65 | 1016.2 |
| 20260902133018 | 83 | 113 | 2.0 | 5.0 | 0.00 | 0.01 | 0.00 | 66 | 1016.2 |
| 20260902132018 | 83 | 113 | 2.0 | 4.0 | 0.00 | 0.01 | 0.00 | 68 | 1016.2 |
| 20260902131018 | 82 | 90 | 2.0 | 4.0 | 0.00 | 0.01 | 0.00 | 68 | 1016.0 |
| 20260902130018 | 81 | 103 | 1.0 | 3.0 | 0.00 | 0.01 | 0.00 | 70 | 1015.9 |
| 20260902125015 | 80 | 100 | 1.0 | 2.0 | 0.00 | 0.01 | 0.00 | 73 | 1015.7 |
| 20260902124036 | 79 | 111 | 0.0 | 2.0 | 0.00 | 0.01 | 0.00 | 74 | 1015.7 |
| 20260902123016 | 79 | 105 | 1.0 | 3.0 | 0.00 | 0.01 | 0.00 | 74 | 1015.7 |
| 20260902122016 | 79 | 96 | 1.0 | 2.0 | 0.00 | 0.01 | 0.00 | 74 | 1015.5 |
| 20260902121036 | 79 | 110 | 1.0 | 2.0 | 0.00 | 0.01 | 0.00 | 74 | 1015.5 |
| 20260902120016 | 79 | 102 | 1.0 | 3.0 | 0.00 | 0.01 | 0.00 | 74 | 1015.5 |
| 20260902115016 | 79 | 101 | 1.0 | 2.0 | 0.00 | 0.01 | 0.00 | 74 | 1015.5 |
| 20260902114037 | 79 | 87 | 0.0 | 2.0 | 0.00 | 0.01 | 0.00 | 74 | 1015.5 |
| 20260902113016 | 79 | 5 | 0.0 | 1.0 | 0.00 | 0.01 | 0.00 | 74 | 1015.5 |
| 20260902112017 | 79 | 76 | 0.0 | 2.0 | 0.00 | 0.01 | 0.00 | 73 | 1015.5 |
| 20260902111017 | 80 | 70 | 0.0 | 1.0 | 0.00 | 0.01 | 0.00 | 72 | 1015.5 |
| 20260902110017 | 80 | 85 | 1.0 | 3.0 | 0.00 | 0.01 | 0.00 | 72 | 1015.5 |
| 20260902105038 | 80 | 94 | 1.0 | 3.0 | 0.00 | 0.01 | 0.00 | 72 | 1015.5 |
| 20260902104017 | 80 | 97 | 0.0 | 2.0 | 0.00 | 0.01 | 0.00 | 72 | 1015.6 |
| 20260902103037 | 80 | 92 | 0.0 | 1.0 | 0.00 | 0.01 | 0.00 | 72 | 1015.5 |
| 20260902102015 | 80 | 87 | 1.0 | 2.0 | 0.00 | 0.01 | 0.00 | 71 | 1015.4 |
| 20260902101018 | 80 | 73 | 1.0 | 2.0 | 0.00 | 0.01 | 0.00 | 71 | 1015.4 |
| 20260902100018 | 80 | 0.0 | 0.0 | 0.00 | 0.01 | 0.00 | 70 | 1015.4 | |
| 20260902095016 | 80 | 68 | 0.0 | 1.0 | 0.00 | 0.01 | 0.00 | 70 | 1015.4 |
| 20260902094015 | 81 | 0.0 | 0.0 | 0.00 | 0.01 | 0.00 | 69 | 1015.3 | |
| 20260902093015 | 81 | 78 | 0.0 | 1.0 | 0.00 | 0.01 | 0.00 | 68 | 1015.3 |
| 20260902092016 | 82 | 117 | 0.0 | 1.0 | 0.00 | 0.01 | 0.00 | 68 | 1015.3 |
| 20260902091016 | 82 | 130 | 0.0 | 1.0 | 0.00 | 0.01 | 0.00 | 67 | 1015.4 |
| 20260902090037 | 82 | 249 | 0.0 | 2.0 | 0.00 | 0.01 | 0.00 | 66 | 1015.4 |
| 20260902085016 | 83 | 234 | 0.0 | 2.0 | 0.00 | 0.01 | 0.00 | 65 | 1015.3 |
| 20260902084017 | 83 | 216 | 1.0 | 4.0 | 0.00 | 0.01 | 0.00 | 65 | 1015.3 |
| 20260902083057 | 83 | 190 | 0.0 | 2.0 | 0.00 | 0.01 | 0.00 | 64 | 1015.4 |
| 20260902082017 | 83 | 202 | 1.0 | 4.0 | 0.00 | 0.01 | 0.00 | 63 | 1015.4 |
| 20260902081017 | 84 | 205 | 1.0 | 4.0 | 0.00 | 0.01 | 0.00 | 63 | 1015.4 |
| 20260902080017 | 84 | 182 | 1.0 | 4.0 | 0.00 | 0.01 | 0.00 | 62 | 1015.4 |
| 20260902075038 | 84 | 207 | 2.0 | 6.0 | 0.00 | 0.01 | 0.00 | 61 | 1015.5 |
| 20260902074018 | 85 | 184 | 2.0 | 5.0 | 0.00 | 0.01 | 0.00 | 61 | 1015.4 |
| 20260902073058 | 85 | 196 | 2.0 | 5.0 | 0.00 | 0.01 | 0.00 | 60 | 1015.5 |
| 20260902072018 | 85 | 147 | 2.0 | 5.0 | 0.00 | 0.01 | 0.00 | 60 | 1015.5 |
| 20260902071018 | 85 | 159 | 2.0 | 6.0 | 0.00 | 0.01 | 0.00 | 59 | 1015.5 |
| 20260902070018 | 85 | 190 | 1.0 | 4.0 | 0.00 | 0.01 | 0.00 | 59 | 1015.5 |
| 20260902065016 | 86 | 185 | 1.0 | 4.0 | 0.00 | 0.01 | 0.00 | 59 | 1015.5 |
| 20260902064016 | 85 | 187 | 2.0 | 5.0 | 0.00 | 0.01 | 0.00 | 59 | 1015.5 |
| 20260902063016 | 85 | 188 | 1.0 | 5.0 | 0.00 | 0.01 | 0.00 | 60 | 1015.4 |
| 20260902062016 | 85 | 181 | 2.0 | 5.0 | 0.00 | 0.01 | 0.00 | 60 | 1015.3 |
| 20260902061056 | 86 | 196 | 2.0 | 5.0 | 0.00 | 0.01 | 0.00 | 60 | 1015.3 |
| 20260902060017 | 86 | 178 | 2.0 | 5.0 | 0.00 | 0.01 | 0.00 | 59 | 1015.3 |
| 20260902055017 | 86 | 162 | 2.0 | 6.0 | 0.00 | 0.01 | 0.00 | 59 | 1015.2 |
| 20260902054018 | 86 | 179 | 2.0 | 5.0 | 0.00 | 0.01 | 0.00 | 59 | 1015.1 |
| 20260902053018 | 87 | 174 | 1.0 | 7.0 | 0.00 | 0.01 | 0.00 | 58 | 1015.1 |
| 20260902052018 | 87 | 193 | 2.0 | 6.0 | 0.00 | 0.01 | 0.00 | 57 | 1015.0 |
| 20260902051018 | 87 | 167 | 2.0 | 6.0 | 0.00 | 0.01 | 0.00 | 56 | 1014.9 |
| 20260902050018 | 88 | 152 | 1.0 | 7.0 | 0.00 | 0.01 | 0.00 | 56 | 1014.9 |
| 20260902045036 | 88 | 141 | 2.0 | 6.0 | 0.00 | 0.01 | 0.01 | 55 | 1015.0 |
| 20260902044016 | 88 | 147 | 3.0 | 7.0 | 0.00 | 0.01 | 0.01 | 54 | 1015.1 |
| 20260902043016 | 89 | 126 | 2.0 | 7.0 | 0.00 | 0.01 | 0.01 | 53 | 1015.0 |
| 20260902042016 | 90 | 132 | 3.0 | 8.0 | 0.00 | 0.01 | 0.01 | 52 | 1014.7 |
| 20260902041016 | 89 | 116 | 3.0 | 9.0 | 0.00 | 0.01 | 0.01 | 51 | 1014.6 |
| 20260902040016 | 89 | 100 | 1.0 | 4.0 | 0.00 | 0.01 | 0.01 | 51 | 1014.5 |
| 20260902035016 | 90 | 93 | 1.0 | 3.0 | 0.00 | 0.01 | 0.01 | 50 | 1014.5 |
| 20260902034017 | 90 | 99 | 1.0 | 3.0 | 0.00 | 0.01 | 0.01 | 50 | 1014.5 |
| 20260902033017 | 90 | 95 | 1.0 | 4.0 | 0.00 | 0.01 | 0.01 | 49 | 1014.5 |
| 20260902032017 | 90 | 103 | 2.0 | 3.0 | 0.00 | 0.01 | 0.01 | 49 | 1014.4 |
| 20260902031017 | 91 | 103 | 1.0 | 3.0 | 0.00 | 0.01 | 0.01 | 49 | 1014.4 |
| 20260902030017 | 91 | 100 | 1.0 | 4.0 | 0.00 | 0.01 | 0.01 | 49 | 1014.3 |
| 20260902025017 | 91 | 109 | 2.0 | 4.0 | 0.00 | 0.01 | 0.01 | 48 | 1014.1 |
| 20260902024017 | 91 | 96 | 0.0 | 3.0 | 0.00 | 0.01 | 0.01 | 48 | 1013.9 |
| 20260902023018 | 92 | 93 | 1.0 | 3.0 | 0.00 | 0.01 | 0.01 | 47 | 1013.8 |
| 20260902022018 | 92 | 99 | 1.0 | 3.0 | 0.00 | 0.01 | 0.01 | 46 | 1013.7 |
| 20260902021018 | 92 | 101 | 1.0 | 3.0 | 0.00 | 0.01 | 0.01 | 46 | 1013.5 |
| 20260902020015 | 93 | 91 | 1.0 | 4.0 | 0.00 | 0.01 | 0.01 | 45 | 1013.4 |
| 20260902015018 | 93 | 95 | 1.0 | 3.0 | 0.00 | 0.01 | 0.01 | 45 | 1013.3 |
| 20260902014016 | 93 | 92 | 1.0 | 4.0 | 0.00 | 0.01 | 0.01 | 44 | 1013.2 |
| 20260902013016 | 94 | 98 | 2.0 | 3.0 | 0.00 | 0.01 | 0.01 | 43 | 1013.1 |
| 20260902012017 | 94 | 104 | 1.0 | 4.0 | 0.00 | 0.01 | 0.01 | 43 | 1013.0 |
| 20260902011016 | 94 | 100 | 1.0 | 3.0 | 0.00 | 0.01 | 0.01 | 43 | 1013.0 |
| 20260902010016 | 95 | 93 | 2.0 | 4.0 | 0.00 | 0.01 | 0.01 | 43 | 1012.9 |
| 20260902005017 | 95 | 90 | 2.0 | 5.0 | 0.00 | 0.01 | 0.01 | 42 | 1012.9 |
| 20260902004017 | 96 | 91 | 1.0 | 5.0 | 0.00 | 0.01 | 0.01 | 42 | 1012.9 |
| 20260902003036 | 96 | 81 | 2.0 | 6.0 | 0.00 | 0.01 | 0.01 | 41 | 1012.9 |
| 20260902002017 | 97 | 71 | 2.0 | 4.0 | 0.00 | 0.01 | 0.01 | 40 | 1013.0 |
| 20260902001017 | 97 | 89 | 2.0 | 6.0 | 0.00 | 0.01 | 0.01 | 39 | 1013.1 |
| 20260902000017 | 97 | 96 | 3.0 | 8.0 | 0.01 | 0.01 | 0.01 | 39 | 1013.1 |
| 20260901235037 | 98 | 113 | 2.0 | 5.0 | 0.01 | 0.01 | 0.01 | 39 | 1013.1 |
| 20260901234017 | 98 | 87 | 2.0 | 7.0 | 0.01 | 0.01 | 0.01 | 38 | 1013.2 |
| 20260901233018 | 98 | 106 | 3.0 | 8.0 | 0.01 | 0.01 | 0.01 | 39 | 1013.2 |
| 20260901232018 | 98 | 97 | 2.0 | 7.0 | 0.01 | 0.01 | 0.01 | 41 | 1013.2 |
| 20260901231016 | 100 | 139 | 3.0 | 9.0 | 0.01 | 0.01 | 0.01 | 38 | 1013.1 |
| 20260901230038 | 101 | 191 | 2.0 | 7.0 | 0.00 | 0.00 | 0.00 | 35 | 1013.1 |
| 20260901225016 | 101 | 87 | 2.0 | 7.0 | 0.00 | 0.00 | 0.00 | 35 | 1013.1 |
| 20260901224015 | 100 | 110 | 2.0 | 5.0 | 0.00 | 0.00 | 0.00 | 35 | 1013.2 |
| 20260901223016 | 100 | 98 | 3.0 | 8.0 | 0.00 | 0.00 | 0.00 | 35 | 1013.2 |
| 20260901222036 | 101 | 55 | 3.0 | 6.0 | 0.00 | 0.00 | 0.00 | 35 | 1013.2 |
| 20260901221036 | 101 | 111 | 1.0 | 5.0 | 0.00 | 0.00 | 0.00 | 35 | 1013.3 |
| 20260901220016 | 102 | 110 | 3.0 | 8.0 | 0.00 | 0.00 | 0.00 | 35 | 1013.3 |
| 20260901215016 | 101 | 126 | 2.0 | 8.0 | 0.00 | 0.00 | 0.00 | 34 | 1013.3 |
| 20260901214017 | 101 | 114 | 2.0 | 8.0 | 0.00 | 0.00 | 0.00 | 35 | 1013.5 |
| 20260901213016 | 101 | 100 | 3.0 | 7.0 | 0.00 | 0.00 | 0.00 | 35 | 1013.5 |
| 20260901212017 | 102 | 141 | 2.0 | 7.0 | 0.00 | 0.00 | 0.00 | 34 | 1013.6 |
| 20260901211017 | 102 | 88 | 2.0 | 7.0 | 0.00 | 0.00 | 0.00 | 34 | 1013.7 |
| 20260901210017 | 101 | 106 | 2.0 | 6.0 | 0.00 | 0.00 | 0.00 | 34 | 1013.8 |
| 20260901205037 | 101 | 140 | 1.0 | 5.0 | 0.00 | 0.00 | 0.00 | 35 | 1013.9 |
| 20260901204017 | 101 | 102 | 2.0 | 8.0 | 0.00 | 0.00 | 0.00 | 35 | 1014.0 |